Temp
-5 -5 -5 -4 -5 -5 -5 -5 -5 -5 -5 -5 -5 -5 -5 -5 -5 -6 -6 -6 -6 -6 -7 -6 -5 -5 -7 -7 -7 -6 -7 -8 -8 -6 -7 -7 -6 -6 -5 -5 -4 -4 -4 -4 -4
-5 -4 -4 -4 -4 -4 -4 -4 -4 -4 -5 -5 -5 -5 -5 -5 -5 -6 -6 -6 -6 -7 -8 -8 -6 -7 -7 -7 -7 -6 -8 -8 -8 -6 -7 -7 -7 -5 -5 -5 -5 -4 -4 -4 -4
-5 -4 -4 -4 -4 -4 -4 -4 -4 -4 -4 -5 -5 -5 -5 -4 -5 -5 -6 -6 -6 -7 -7 -8 -8 -8 -8 -8 -8 -6 -8 -8 -7 -6 -6 -7 -6 -5 -5 -6 -5 -5 -5 -4 -4
-5 -4 -4 -4 -4 -4 -4 -4 -4 -4 -4 -4 -4 -5 -4 -4 -5 -5 -5 -5 -5 -7 -7 -7 -8 -8 -8 -8 -9 -8 -8 -7 -6 -6 -7 -7 -5 -6 -5 -5 -5 -5 -5 -4 -4
-4 -4 -4 -4 -4 -4 -4 -4 -4 -3 -4 -4 -4 -4 -4 -5 -5 -5 -5 -5 -5 -6 -7 -7 -8 -8 -8 -8 -8 -8 -8 -7 -6 -6 -6 -6 -6 -6 -6 -6 -5 -5 -5 -5 -4
-5 -4 -4 -4 -4 -4 -3 -4 -4 -4 -3 -4 -4 -4 -4 -5 -5 -4 -5 -5 -5 -6 -6 -7 -6 -6 -6 -8 -8 -8 -8 -7 -7 -6 -6 -6 -6 -5 -5 -5 -5 -5 -5 -4 -4
-5 -4 -4 -4 -3 -3 -3 -3 -4 -4 -3 -4 -4 -4 -4 -4 -4 -4 -4 -5 -5 -5 -5 -5 -6 -7 -5 -7 -7 -8 -8 -7 -7 -6 -7 -7 -7 -5 -5 -5 -5 -5 -4 -4 -4
-5 -4 -4 -4 -3 -3 -3 -3 -4 -4 -4 -4 -4 -4 -4 -4 -4 -5 -5 -5 -5 -5 -5 -5 -6 -6 -5 -6 -6 -7 -8 -7 -7 -6 -6 -7 -7 -6 -5 -5 -5 -5 -5 -5 -4
-5 -5 -4 -4 -4 -3 -3 -3 -4 -4 -4 -4 -4 -4 -4 -4 -4 -5 -5 -5 -5 -5 -5 -5 -6 -6 -6 -6 -6 -7 -8 -7 -7 -6 -6 -6 -7 -7 -6 -6 -5 -5 -5 -5 -5
-5 -5 -5 -4 -4 -4 -3 -3 -3 -4 -4 -4 -4 -4 -5 -5 -5 -5 -4 -4 -5 -5 -5 -5 -6 -6 -6 -7 -7 -7 -7 -7 -7 -7 -6 -5 -7 -7 -7 -6 -6 -6 -5 -5 -6
-6 -5 -5 -5 -4 -4 -4 -3 -3 -4 -4 -4 -4 -4 -5 -4 -4 -5 -4 -4 -4 -4 -4 -5 -6 -6 -7 -7 -7 -7 -7 -7 -7 -6 -6 -5 -5 -6 -6 -6 -6 -7 -6 -5 -5
-6 -6 -5 -5 -5 -5 -4 -4 -3 -3 -4 -4 -4 -4 -4 -4 -4 -4 -4 -4 -4 -4 -4 -5 -5 -5 -6 -6 -6 -6 -7 -7 -7 -6 -6 -5 -4 -5 -6 -6 -6 -6 -6 -5 -5
-6 -6 -6 -6 -5 -5 -4 -3 -3 -3 -3 -3 -4 -4 -5 -4 -5 -4 -4 -4 -4 -4 -4 -5 -5 -5 -5 -6 -6 -6 -6 -6 -6 -6 -6 -6 -5 -5 -5 -5 -6 -6 -7 -6 -5
-6 -6 -6 -6 -6 -5 -5 -4 -4 -4 -4 -4 -4 -4 -4 -4 -4 -4 -4 -4 -4 -4 -5 -5 -4 -5 -4 -5 -6 -6 -6 -6 -6 -6 -6 -6 -5 -5 -5 -5 -6 -6 -6 -6 -6
-6 -6 -6 -7 -7 -6 -5 -5 -4 -4 -4 -4 -4 -4 -4 -4 -4 -4 -4 -4 -4 -4 -4 -4 -4 -4 -4 -4 -6 -6 -6 -6 -6 -6 -6 -6 -5 -6 -5 -5 -6 -6 -6 -5 -6
-6 -7 -6 -7 -7 -6 -6 -6 -5 -5 -3 -4 -4 -4 -4 -5 -5 -5 -4 -4 -5 -4 -4 -5 -5 -5 -3 -4 -6 -6 -6 -6 -7 -6 -5 -5 -6 -5 -5 -6 -5 -6 -6 -5 -5
-6 -7 -7 -7 -7 -7 -7 -7 -6 -4 -4 -4 -4 -4 -4 -5 -5 -5 -4 -4 -4 -3 -3 -4 -3 -4 -3 -3 -6 -6 -6 -5 -5 -6 -6 -6 -6 -5 -6 -6 -6 -6 -5 -5 -5
-7 -7 -7 -8 -7 -7 -7 -7 -5 -4 -5 -5 -5 -5 -4 -5 -5 -5 -5 -4 -4 -4 -4 -4 -4 -3 -3 -3 -5 -6 -5 -5 -6 -6 -6 -6 -5 -4 -5 -6 -6 -6 -5 -5 -5
-7 -7 -7 -9 -7 -7 -7 -6 -4 -4 -6 -6 -6 -6 -6 -5 -6 -5 -4 -5 -4 -4 -3 -4 -4 -5 -4 -4 -5 -5 -4 -6 -6 -6 -5 -6 -5 -5 -5 -6 -6 -6 -6 -6 -6
-7 -8 -8 -9 -8 -8 -7 -5 -5 -6 -7 -7 -8 -7 -7 -7 -6 -5 -4 -4 -5 -4 -5 -5 -5 -5 -5 -5 -5 -5 -5 -6 -6 -6 -6 -6 -6 -6 -6 -6 -6 -6 -6 -6 -6
-8 -7 -10 -9 -8 -8 -6 -5 -5 -7 -8 -8 -8 -7 -6 -6 -7 -7 -4 -4 -5 -5 -5 -5 -5 -5 -5 -5 -5 -5 -5 -6 -6 -6 -6 -6 -6 -6 -6 -6 -6 -6 -7 -6 -6
-8 -9 -10 -10 -8 -7 -6 -6 -7 -7 -8 -8 -9 -8 -7 -7 -6 -6 -7 -5 -5 -6 -5 -5 -5 -6 -5 -6 -6 -6 -6 -5 -5 -5 -6 -6 -6 -7 -6 -6 -6 -6 -6 -7 -6
-8 -11 -11 -10 -8 -7 -7 -7 -7 -7 -9 -8 -8 -9 -8 -9 -7 -6 -7 -7 -6 -6 -5 -6 -5 -5 -6 -6 -5 -5 -7 -7 -6 -5 -6 -6 -7 -6 -7 -6 -6 -6 -6 -6 -6
-12 -13 -13 -11 -10 -9 -8 -8 -8 -8 -8 -9 -8 -9 -9 -9 -9 -7 -7 -8 -8 -6 -6 -7 -6 -5 -5 -6 -6 -6 -5 -7 -7 -6 -5 -6 -6 -7 -7 -7 -6 -6 -6 -6 -6
-16 -17 -15 -11 -11 -10 -9 -7 -8 -8 -8 -9 -8 -9 -9 -9 -9 -8 -7 -8 -8 -8 -8 -8 -7 -6 -6 -6 -7 -6 -7 -7 -7 -7 -6 -6 -6 -7 -7 -7 -6 -6 -6 -5 -6
-19 -18 -17 -12 -11 -10 -9 -8 -8 -8 -8 -9 -8 -8 -9 -9 -9 -9 -8 -8 -8 -8 -8 -8 -8 -7 -7 -7 -7 -7 -7 -7 -7 -7 -7 -6 -6 -6 -7 -7 -7 -6 -5 -6 -6
-21 -19 -18 -16 -13 -11 -11 -10 -9 -9 -8 -9 -8 -8 -9 -9 -9 -9 -9 -8 -8 -8 -8 -8 -8 -8 -7 -7 -7 -7 -7 -7 -7 -7 -7 -7 -6 -6 -7 -7 -7 -7 -6 -6 -6
Height
5899 5900 5902 5903 5904 5905 5906 5908 5909 5910 5912 5913 5914 5916 5917 5920 5923 5926 5928 5930 5931 5933 5935 5937 5936 5936 5935 5935 5934 5933 5932 5929 5933 5933 5934 5931 5932 5929 5929 5928 5925 5923 5921 5920 5919
5897 5899 5900 5901 5903 5904 5905 5907 5909 5910 5911 5913 5914 5916 5918 5920 5923 5926 5929 5930 5933 5935 5936 5935 5936 5936 5936 5934 5936 5936 5935 5934 5938 5939 5938 5936 5935 5933 5930 5929 5929 5925 5924 5922 5920
5895 5897 5898 5900 5901 5903 5904 5906 5908 5909 5911 5913 5915 5916 5918 5921 5924 5926 5929 5931 5934 5935 5936 5936 5937 5938 5938 5937 5937 5940 5934 5941 5939 5940 5941 5940 5938 5934 5933 5931 5931 5928 5927 5925 5923
5894 5895 5896 5898 5899 5901 5903 5904 5907 5909 5911 5913 5915 5917 5919 5923 5926 5928 5930 5931 5933 5935 5936 5936 5937 5940 5939 5937 5937 5938 5940 5940 5940 5942 5944 5944 5940 5937 5936 5935 5933 5931 5930 5928 5926
5891 5893 5894 5896 5897 5899 5901 5903 5905 5907 5910 5913 5915 5918 5921 5923 5925 5928 5930 5931 5932 5934 5935 5937 5938 5939 5937 5936 5944 5944 5943 5942 5942 5944 5943 5941 5943 5940 5938 5937 5936 5934 5933 5931 5929
5888 5890 5892 5893 5895 5896 5898 5901 5903 5905 5908 5911 5915 5918 5920 5922 5924 5926 5929 5931 5933 5934 5935 5937 5938 5939 5938 5940 5943 5946 5943 5944 5944 5945 5944 5941 5942 5942 5943 5940 5938 5937 5935 5933 5930
5883 5886 5888 5890 5892 5894 5896 5898 5901 5903 5906 5909 5913 5917 5919 5921 5923 5926 5928 5930 5932 5934 5936 5937 5938 5940 5940 5940 5943 5944 5943 5944 5945 5947 5947 5946 5944 5945 5943 5942 5940 5941 5938 5935 5933
5878 5881 5883 5886 5888 5891 5892 5895 5898 5900 5904 5907 5911 5914 5916 5919 5922 5924 5927 5929 5932 5934 5936 5938 5938 5940 5942 5942 5944 5943 5945 5943 5946 5948 5951 5949 5948 5946 5945 5944 5943 5942 5941 5938 5935
5872 5875 5878 5881 5884 5887 5889 5891 5894 5897 5901 5905 5909 5912 5915 5919 5922 5923 5926 5928 5930 5933 5935 5936 5938 5940 5942 5943 5944 5945 5945 5945 5947 5949 5953 5954 5950 5949 5948 5948 5948 5946 5944 5942 5941
5865 5869 5872 5875 5878 5881 5884 5887 5890 5893 5897 5901 5905 5909 5913 5915 5916 5921 5924 5926 5929 5931 5934 5936 5937 5941 5942 5944 5946 5947 5949 5949 5949 5951 5952 5954 5952 5951 5951 5952 5951 5949 5947 5945 5946
5859 5861 5865 5869 5872 5875 5879 5882 5887 5891 5895 5899 5902 5903 5907 5911 5914 5918 5921 5924 5927 5931 5933 5936 5938 5940 5942 5944 5945 5946 5946 5946 5950 5952 5952 5953 5952 5950 5951 5952 5952 5950 5949 5949 5948
5852 5854 5857 5861 5866 5869 5872 5875 5878 5885 5888 5892 5898 5902 5905 5908 5911 5913 5917 5922 5926 5930 5932 5936 5937 5939 5940 5942 5943 5944 5943 5941 5948 5951 5952 5951 5952 5950 5951 5952 5953 5951 5949 5949 5948
5844 5847 5849 5853 5858 5861 5864 5869 5874 5880 5885 5890 5892 5898 5903 5907 5911 5913 5916 5920 5924 5928 5932 5936 5938 5938 5938 5940 5942 5942 5944 5946 5949 5950 5949 5950 5951 5948 5949 5951 5952 5953 5952 5950 5950
5835 5839 5842 5844 5850 5852 5857 5863 5868 5877 5882 5887 5890 5893 5899 5903 5906 5911 5912 5916 5920 5926 5929 5930 5932 5936 5939 5939 5940 5939 5946 5947 5950 5950 5950 5950 5949 5947 5947 5949 5951 5953 5954 5954 5953
5825 5829 5833 5836 5841 5842 5850 5855 5860 5866 5871 5879 5885 5891 5894 5901 5905 5908 5910 5913 5917 5921 5927 5931 5932 5935 5937 5938 5937 5945 5946 5946 5948 5950 5948 5946 5946 5946 5944 5946 5950 5951 5953 5955 5955
5814 5818 5822 5828 5831 5833 5840 5846 5850 5856 5862 5870 5876 5880 5884 5892 5897 5899 5905 5910 5911 5914 5920 5923 5929 5931 5935 5936 5937 5941 5944 5944 5945 5945 5946 5948 5946 5945 5944 5945 5947 5948 5950 5952 5952
5801 5806 5811 5818 5820 5823 5830 5834 5839 5844 5859 5863 5868 5874 5881 5888 5889 5894 5898 5902 5906 5911 5917 5920 5922 5926 5930 5931 5935 5937 5939 5943 5943 5944 5946 5947 5944 5944 5944 5944 5945 5946 5948 5947 5947
5787 5792 5799 5805 5805 5812 5818 5822 5826 5840 5853 5855 5862 5867 5873 5881 5882 5888 5894 5897 5901 5907 5913 5916 5920 5924 5927 5929 5931 5934 5937 5942 5941 5942 5943 5941 5939 5941 5943 5942 5942 5944 5945 5944 5945
5769 5776 5784 5789 5791 5799 5806 5809 5821 5833 5846 5847 5852 5857 5865 5870 5876 5880 5886 5894 5898 5903 5907 5912 5917 5920 5922 5927 5929 5931 5935 5938 5938 5938 5938 5938 5939 5940 5939 5941 5940 5940 5940 5941 5945
5749 5759 5769 5769 5777 5785 5792 5803 5813 5825 5836 5834 5837 5848 5856 5861 5866 5869 5876 5888 5891 5895 5902 5907 5913 5914 5919 5921 5923 5926 5934 5933 5933 5936 5936 5937 5935 5935 5937 5937 5936 5935 5938 5940 5941
5727 5739 5745 5752 5761 5770 5780 5791 5803 5813 5822 5825 5828 5833 5841 5848 5855 5862 5870 5879 5885 5889 5894 5901 5905 5910 5910 5912 5919 5922 5924 5927 5929 5933 5934 5934 5934 5935 5933 5933 5934 5930 5934 5937 5936
5702 5717 5723 5734 5744 5757 5768 5778 5788 5800 5807 5813 5819 5827 5834 5838 5843 5847 5856 5867 5878 5882 5885 5894 5896 5902 5905 5910 5912 5918 5922 5925 5924 5929 5929 5930 5932 5931 5932 5933 5933 5934 5932 5932 5933
5676 5692 5701 5712 5728 5740 5752 5761 5772 5786 5796 5805 5810 5817 5824 5830 5837 5842 5850 5859 5868 5875 5878 5886 5886 5895 5898 5902 5904 5906 5914 5920 5923 5925 5925 5927 5929 5928 5929 5930 5930 5932 5931 5930 5929
5649 5666 5675 5695 5711 5721 5732 5747 5757 5770 5782 5791 5803 5808 5815 5823 5828 5835 5839 5849 5858 5865 5873 5878 5881 5884 5890 5897 5902 5904 5908 5914 5917 5919 5923 5922 5924 5924 5924 5926 5926 5927 5927 5928 5927
5625 5641 5652 5674 5690 5703 5714 5730 5741 5755 5767 5776 5786 5796 5807 5815 5820 5830 5836 5840 5850 5853 5862 5869 5872 5878 5885 5893 5895 5898 5903 5908 5911 5914 5915 5921 5918 5919 5920 5922 5922 5923 5923 5924 5924
5607 5623 5639 5656 5670 5685 5697 5707 5722 5733 5750 5764 5776 5791 5794 5805 5814 5823 5828 5833 5843 5849 5854 5862 5865 5872 5877 5887 5888 5890 5894 5900 5904 5909 5909 5912 5914 5914 5914 5913 5914 5920 5922 5922 5920
5593 5606 5622 5636 5654 5671 5679 5687 5699 5716 5735 5752 5765 5774 5780 5800 5806 5815 5818 5826 5830 5841 5846 5848 5857 5864 5868 5877 5881 5882 5886 5891 5897 5901 5904 5904 5908 5908 5907 5908 5909 5912 5916 5916 5915
Wind_Speed
7 8 9 10 11 11 12 11 13 13 14 13 15 18 20 21 21 25 28 22 23 24 25 32 28 25 25 24 19 17 17 18 21 19 18 23 18 21 22 20 21 20 18 15 13
9 10 10 11 12 12 12 11 11 13 14 13 16 18 19 20 22 24 29 25 27 35 29 30 26 24 22 26 16 11 15 14 17 12 25 20 19 18 20 21 19 22 20 19 18
12 11 11 11 13 14 14 13 12 13 14 16 15 15 19 23 23 24 27 26 29 35 31 29 27 22 21 17 13 6 15 12 9 11 19 19 15 18 17 17 16 20 19 19 18
15 12 13 12 13 15 16 16 14 14 16 17 15 15 22 21 22 20 24 24 27 35 30 22 25 27 24 21 13 10 7 7 6 16 14 17 22 21 18 13 13 16 16 17 19
17 16 14 14 13 15 17 18 18 17 17 18 19 18 21 20 21 18 20 20 24 33 28 20 29 28 24 23 15 5 2 11 21 19 20 27 23 22 19 13 14 13 14 15 18
20 18 17 16 15 15 18 19 19 19 19 18 19 20 21 21 19 19 20 18 18 26 26 21 18 10 15 23 20 6 4 17 24 21 17 26 25 20 18 15 14 13 13 14 18
23 22 19 18 18 16 19 20 21 22 20 19 19 19 20 19 17 18 20 18 20 20 19 20 17 11 17 20 19 14 4 13 19 29 20 18 27 20 19 18 16 13 14 15 19
27 25 23 21 20 19 20 22 22 23 23 22 21 20 21 18 18 17 16 17 17 16 13 13 12 12 16 24 20 21 9 4 20 24 16 19 26 28 28 22 16 16 14 16 18
29 29 26 25 22 22 20 24 24 25 25 24 23 23 20 17 16 18 17 17 17 17 16 18 21 27 25 22 18 15 12 2 14 20 17 13 17 23 25 26 21 16 16 16 15
26 30 30 28 27 25 24 27 28 27 27 26 26 26 25 25 23 20 20 19 18 18 19 27 30 30 25 22 19 15 7 6 7 13 22 11 12 13 16 21 27 17 15 16 15
27 29 33 32 30 28 28 27 30 28 26 27 28 30 30 28 24 24 23 21 19 18 20 30 35 23 23 19 16 10 1 5 3 12 19 11 9 11 17 25 26 26 8 12 14
28 30 32 35 33 32 32 31 34 32 32 29 29 28 29 28 27 28 26 23 20 20 23 31 24 18 24 22 18 13 4 6 11 14 20 14 5 14 18 21 22 24 21 12 10
31 29 32 35 36 36 37 36 33 33 33 31 31 29 29 26 24 27 25 24 23 22 22 28 21 20 21 24 21 16 5 7 4 11 16 18 5 12 15 17 20 20 21 16 12
33 33 31 35 37 40 40 37 36 32 34 33 32 32 30 29 27 28 29 27 25 22 25 31 27 23 19 24 25 21 14 12 8 13 17 20 12 12 10 15 18 15 13 12 20
37 37 35 33 35 42 42 39 39 37 38 35 34 30 31 28 27 28 30 29 26 23 23 22 23 20 21 24 30 18 18 17 8 11 21 16 14 9 12 16 14 16 17 25 24
43 40 40 37 36 42 42 41 43 43 41 38 37 38 38 34 33 35 32 30 31 30 27 27 24 24 24 25 34 27 29 22 17 19 13 9 19 13 14 16 21 23 26 23 14
49 46 43 41 43 42 41 44 47 49 41 38 39 40 37 35 37 36 35 36 36 32 27 26 25 23 25 27 39 38 36 20 16 16 4 7 20 5 14 15 18 23 24 23 22
56 52 49 44 49 47 43 47 53 49 38 41 38 38 41 37 39 38 37 37 37 32 29 29 27 21 20 26 40 40 32 21 15 15 15 13 20 5 12 18 19 22 21 21 22
63 60 54 52 53 51 50 49 51 49 35 40 40 40 36 41 41 41 41 36 34 32 32 29 27 22 25 21 30 31 25 21 21 16 8 6 12 12 12 14 20 21 22 22 25
67 66 58 59 59 55 54 51 46 44 37 44 42 39 37 35 41 46 44 39 38 37 32 31 27 28 23 24 24 27 21 27 25 20 10 9 15 18 16 18 20 23 24 24 29
73 70 64 65 64 62 57 54 49 41 42 48 47 50 46 46 37 34 42 40 38 37 37 33 32 30 31 28 23 25 28 29 24 21 17 17 16 14 20 17 20 26 24 30 30
82 75 71 70 70 66 61 57 53 47 49 55 50 49 46 43 45 45 34 40 39 37 40 37 37 35 34 26 23 16 11 26 29 26 26 21 18 12 16 20 22 24 26 23 30
87 78 74 76 74 71 66 63 57 53 51 55 59 51 49 46 45 45 34 19 38 40 40 37 41 37 35 33 32 34 24 17 26 32 32 28 23 23 23 26 31 29 29 29 28
87 74 76 76 77 74 71 67 64 58 57 56 62 56 52 51 49 43 40 29 26 37 36 33 41 43 41 34 29 28 26 24 20 31 35 35 32 29 29 31 35 33 32 33 33
79 65 73 82 79 79 76 74 70 64 61 60 65 66 57 53 48 47 44 38 35 35 29 26 37 43 41 35 31 30 20 25 22 22 26 39 39 36 34 36 40 41 40 35 33
50 60 65 81 84 83 82 80 75 71 66 65 63 70 65 59 56 51 47 41 38 40 37 33 35 29 44 40 37 31 34 36 29 23 23 19 31 44 42 35 37 36 34 31 38
43 52 56 72 79 82 81 83 80 75 69 65 65 73 75 64 61 56 54 49 44 43 42 46 40 34 37 44 45 40 40 38 40 33 26 25 24 32 40 41 41 41 34 32 30
Wind_Direction
215 205 191 198 196 188 181 186 185 183 175 174 173 175 173 169 164 161 159 154 146 135 122 123 125 106 76 67 72 58 42 23 333 1 22 30 37 44 55 48 52 54 56 52 52
219 209 206 197 204 199 189 187 187 180 177 173 170 174 175 170 166 164 167 166 143 133 124 105 109 95 78 69 74 38 48 12 323 15 58 44 27 46 50 47 46 53 52 51 52
223 219 210 206 205 205 198 189 190 184 174 170 165 170 169 164 163 163 167 171 153 146 137 126 116 100 91 77 60 24 50 328 306 30 32 44 48 54 54 41 46 53 53 56 56
231 223 219 213 209 211 204 194 189 187 182 178 169 161 167 164 167 171 167 171 165 163 157 148 126 124 118 101 60 356 346 338 354 22 38 50 61 45 54 45 51 56 57 58 59
226 230 224 220 215 212 210 202 192 190 187 186 180 169 170 174 180 175 170 170 170 170 175 162 141 137 128 111 109 268 356 18 29 64 65 51 40 48 47 47 54 58 61 61 65
224 227 228 225 221 216 212 205 198 194 192 188 187 179 178 187 188 180 172 176 173 179 188 176 169 206 164 128 145 127 74 55 44 50 53 49 33 44 47 55 52 52 61 60 65
229 225 228 227 226 221 214 208 203 198 195 192 187 183 184 181 183 184 180 179 178 188 191 197 194 203 165 144 144 160 163 51 39 33 56 52 37 52 47 44 47 46 54 59 66
228 228 225 227 225 226 217 209 205 202 197 194 191 188 197 193 183 184 184 177 181 183 174 173 182 167 137 135 134 151 155 78 29 25 39 62 41 42 43 34 42 45 49 50 53
232 226 227 224 224 224 223 212 207 204 200 196 190 192 190 200 194 187 183 179 174 173 161 146 141 136 133 123 112 127 157 28 23 12 38 44 51 43 44 39 31 40 52 52 50
231 230 225 226 222 221 222 216 211 206 202 198 195 193 183 187 195 191 187 182 175 172 157 150 139 136 125 114 112 120 128 271 349 345 353 41 69 48 32 26 33 22 38 52 52
232 229 227 224 224 221 219 219 215 209 206 206 199 195 194 201 195 188 187 183 177 167 161 160 149 142 126 132 134 128 210 199 292 313 338 32 87 39 31 27 30 18 31 56 54
241 231 226 226 223 222 221 217 218 210 203 202 206 203 203 202 198 193 188 183 176 170 167 164 175 176 157 148 135 120 112 138 242 281 320 352 98 57 34 23 35 28 14 355 14
239 241 231 225 224 223 222 220 221 217 211 202 202 202 201 201 204 200 192 187 180 176 163 181 182 185 174 153 140 119 127 193 337 294 310 309 342 60 57 48 30 21 11 354 5
235 237 236 230 223 225 224 222 221 216 218 215 208 203 199 201 200 205 193 192 191 178 171 179 192 192 193 166 143 127 177 179 228 260 283 281 293 32 18 31 23 15 41 11 2
236 233 235 234 227 225 224 223 221 217 216 215 214 210 207 205 206 204 205 196 194 199 188 190 196 202 197 176 143 157 177 193 210 230 259 272 293 338 323 11 355 350 6 349 350
235 234 232 232 229 228 224 224 222 219 214 212 213 211 208 201 203 205 208 202 199 204 188 195 194 207 188 179 159 185 187 192 220 243 265 289 283 288 326 348 343 349 355 355 3
234 233 232 226 231 230 224 224 224 220 214 216 214 212 215 208 209 208 213 206 209 209 198 213 210 203 197 179 174 196 203 212 200 219 137 233 255 283 295 311 324 338 352 349 355
231 231 230 228 229 228 226 224 223 218 214 217 217 211 216 210 215 215 212 214 214 210 208 214 220 219 215 191 190 202 211 201 180 176 187 213 243 311 285 289 300 321 337 344 352
231 229 227 228 228 227 226 228 222 219 210 218 217 212 210 212 218 223 214 218 220 218 216 214 216 226 232 209 198 212 216 177 192 202 239 285 278 280 285 273 287 305 322 323 329
228 229 224 225 228 226 228 229 226 221 208 215 213 217 202 204 214 221 218 213 218 220 215 216 213 220 223 219 205 210 202 198 211 215 217 252 281 266 283 272 285 294 314 311 318
225 224 224 223 224 226 227 230 224 214 206 205 213 217 211 203 202 220 224 215 215 219 216 213 217 221 212 213 214 211 208 207 219 216 216 242 270 282 281 297 285 290 294 303 311
224 221 220 222 221 225 224 226 223 214 206 201 206 216 212 209 206 203 209 225 210 214 217 211 219 212 226 209 191 203 217 234 217 210 211 235 256 270 259 270 268 279 299 301 309
220 219 219 220 220 221 222 224 221 214 210 203 204 207 204 207 212 206 200 197 223 209 213 211 220 218 218 215 213 202 208 228 235 219 213 223 243 248 251 257 265 274 276 297 309
220 218 218 216 217 217 220 222 221 213 207 206 201 200 200 200 212 207 198 194 208 217 213 206 221 228 223 218 221 228 212 227 238 233 226 222 233 244 253 257 262 271 281 292 296
223 220 217 212 214 215 217 218 219 215 207 206 203 199 195 194 208 209 206 194 202 209 206 211 220 224 230 212 221 218 220 234 237 260 232 227 236 244 253 256 258 267 275 283 289
226 220 219 214 213 213 214 216 217 215 210 205 205 196 199 196 205 203 205 201 205 219 211 215 232 225 225 212 210 210 210 224 235 252 252 224 241 249 252 260 262 261 267 278 280
212 213 215 214 212 212 214 213 214 215 210 203 206 202 202 198 203 205 203 200 196 210 210 208 225 233 227 215 208 211 215 216 226 225 239 242 249 246 246 253 264 271 279 275 277